Regional Weather Roundup
Issued by NWS

Home | Current Version | Previous Version | Graphics & Text | Print | Product List | Glossary On
Versions: 1 2 3 4 5 6 7 8 9 10 11 12 13 14 15 16 17 18 19 20 21 22 23 24 25 26 27 28 29 30 31 32 33 34 35 36 37 38 39 40 41 42 43 44 45 46 47 48 49 50
000
ASUS43 KIND 030459
RWRIN

WEATHER ROUNDUP FOR INDIANA
NATIONAL WEATHER SERVICE INDIANAPOLIS IN
100 AM EDT MON AUG 03 2015

NOTE: "FAIR" INDICATES FEW OR NO CLOUDS BELOW 12,000 FEET WITH NO
SIGNIFICANT WEATHER AND/OR OBSTRUCTIONS TO VISIBILITY.

* - STATION DOES NOT REPORT WEATHER SUCH AS PRECIPITATION OR FOG.

+ - STATION NOT QUALITY CONTROLLED BY THE NATIONAL WEATHER SERVICE.
    USE DATA WITH CAUTION...ESPECIALLY DEWPOINT AND RELATIVE
    HUMIDITY OBSERVATIONS.

INZ001>003-010>013-019-020-030600-
NORTHWEST INDIANA

CITY           SKY/WX    TMP DP  RH WIND       PRES   REMARKS
GARY /AIRPORT/ CLOUDY    66  64  93 W3        29.79R
KNOX *+        MOCLDY    77  61  57 NW24G43   29.77R
MONTICELLO +   PTCLDY    77  73  87 SW13G18   29.76F
RENSSELAER +   MOCLDY    79  70  73 SW14G21   29.74S
VALPARAISO     HVY RAIN  64  63  94 N32G51    29.81R VSB 3/4

$$

LMZ046-743>745-030600-
SOUTHERN LAKE MICHIGAN

STATION/POSITION TIME  TEMP    WIND        PRES    WAVE
                       AIR SEA DIR/SP/G            HT
                 (UTC) (F)     (DEG/KT/KT) (MB)    (FT)
BURNS HARBOR     0441   65     300/ 34     1007.8R
MICHIGAN CITY    0400   70     340/ 28/ 37   N/A
5NW MICH CITY    0400   70 73   10/ 21/ 29   N/A     5

$$

INZ004-005-014>016-021>024-030600-
NORTH CENTRAL INDIANA

CITY           SKY/WX    TMP DP  RH WIND       PRES   REMARKS
GOSHEN         TSTM      63  61  93 NW17G31   29.81R VSB 1
LOGANSPORT +   PTCLDY    77  64  65 SW16G22   29.78F
SOUTH BEND     RAIN      65  62  90 SW15G23   29.75F FOG
WARSAW +       CLOUDY    79  70  73 W8        29.76R

$$

INZ006>009-017-018-025>027-030600-
NORTHEAST INDIANA

CITY           SKY/WX    TMP DP  RH WIND       PRES   REMARKS
ANGOLA *+      CLOUDY   N/A N/A N/A VRB5      29.84R
FORT WAYNE     CLOUDY    77  66  68 SW16      29.77F

$$

INZ028-029-035-036-043>045-051>053-030600-
WEST CENTRAL INDIANA

CITY           SKY/WX    TMP DP  RH WIND       PRES   REMARKS
CRAWFORDSVL +  PTCLDY    74  67  79 SW8         N/A
GREENCASTLE +  PTCLDY    73  63  68 CALM      29.85S
LAFAYETTE      MOCLDY    77  71  82 SW9       29.77F
TERRE HAUTE    PTCLDY    78  71  79 SW9       29.84S

$$

INZ030>032-037>040-046>048-054>057-064-065-030600-
CENTRAL INDIANA

CITY           SKY/WX    TMP DP  RH WIND       PRES   REMARKS
FRANKFORT +    PTCLDY    76  71  84 S9        29.82F
GREENWOOD *+   PTCLDY    73  61  64 S7        29.86R
INDIANAPOLIS   MOCLDY    76  64  66 SW12      29.83R
-EAGLE CREEK   MOCLDY    76  66  71 SW7       29.84R
KOKOMO *+      PTCLDY    77  66  69 SW14G24   29.79F
MT COMFORT *+  CLEAR     72  61  68 S6        29.86R
SHELBYVILLE    PTCLDY    73  63  70 S7        29.86R
ZIONSVILLE +   MOCLDY    77  65  65 SW10G18   29.84F

$$

INZ033-034-041-042-049-050-058-059-030600-
EAST CENTRAL INDIANA

CITY           SKY/WX    TMP DP  RH WIND       PRES   REMARKS
MUNCIE         PTCLDY    75  62  64 SW12      29.83S

$$

INZ060-061-067>069-081>083-085>088-030600-
SOUTHWEST INDIANA

CITY           SKY/WX    TMP DP  RH WIND       PRES   REMARKS
EVANSVILLE     PTCLDY    79  67  66 S7        29.88S
HUNTINGBURG *+ PTCLDY    73  63  68 S5        29.89R

$$

INZ062-063-066-070>080-084-089>092-030600-
SOUTH CENTRAL AND SOUTHEAST INDIANA

CITY           SKY/WX    TMP DP  RH WIND       PRES   REMARKS
BLOOMINGTON    CLEAR     75  64  68 S9        29.87R
MADISON *+     CLEAR     68  61  77 S3        29.91S
SEYMOUR +      CLEAR     70  63  78 S5        29.88R

$$



USA.gov is the U.S. government's official web portal to all federal, state and local government web resources and services.